Flag for U.S.A. Weather past 2 weeks in Paramus, New Jersey, U.S.A.

Now
71 °F

Sunny.


Feels Like: 71 °F
Forecast: 74 / 89 °F
Wind: 5 mph from Southwest

Location: Teterboro Airport

Current Time: Aug 4, 2015 at 8:32:14 AM

Latest Report: Aug 4, 2015 at 7:51 AM


Visibility: 10 mi

Pressure: 29.85 "Hg

Humidity: 81%

Dew point: 65 °F

Location of ParamusLocation

Historic Weather in Paramus — Graph

°F

Paramus temperature yesterday

Maximum temperature yesterday: 92 °F (at 2:51 PM)
Minimum temperature yesterday: 71 °F (at 4:51 AM)
Average temperature yesterday: 82 °F

Past Weeks' High & Low Weather Summary

 TemperatureHumidityPressure
High94 °F (Jul 28, 3:51 PM)91% (Jul 31, 1:51 AM)30.02 "Hg (Jul 31, 1:51 AM)
Low65 °F (Jul 23, 3:51 AM)24% (Jul 31, 4:51 PM)29.55 "Hg (Jul 21, 5:51 PM)
Average80 °F52%29.85 "Hg
* Reported Jul 20 6:51 AM — Aug 4 6:51 AM, Paramus, Weather by CustomWeather, © 2015

Note: Actual official high and low records may vary slightly from our data, if they occured in-between our weather recording intervals... More about our weather records

Advertising

Paramus weather history for previous 24 hours

 ConditionsComfort  
Time TempWeatherWind HumidityBarometerVisibility
6:51 AM
Tue, Aug 4
71 °FClear.7 mph81%29.85 "Hg10 mi
5:51 AM70 °FPassing clouds.3 mph87%29.83 "Hg10 mi
4:51 AM72 °FPassing clouds.5 mph78%29.82 "Hg10 mi
3:56 AM73 °FStrong thunderstorms. Mostly cloudy.22 mph74%29.84 "Hg1 mi
2:51 AM78 °FLight rain. Passing clouds.6 mph62%29.81 "Hg10 mi
1:51 AM79 °FPassing clouds.5 mph56%29.81 "Hg10 mi
12:51 AM80 °FPassing clouds.5 mph51%29.79 "Hg10 mi
11:51 PM
Mon, Aug 3
81 °FClear.6 mph47%29.79 "Hg10 mi
10:51 PM82 °FClear.8 mph44%29.79 "Hg10 mi
9:51 PM85 °FPassing clouds.9 mph39%29.79 "Hg10 mi
8:51 PM86 °FPassing clouds.7 mph33%29.77 "Hg10 mi
7:51 PM87 °FSunny.15 mph32%29.75 "Hg10 mi
6:51 PM89 °FPassing clouds.20 mph31%29.75 "Hg10 mi
5:51 PM90 °FPartly sunny.14 mph34%29.74 "Hg10 mi
4:51 PM91 °FBroken clouds.16 mph31%29.74 "Hg10 mi
3:51 PM91 °FPartly sunny.15 mph33%29.75 "Hg10 mi
2:51 PM92 °FPassing clouds.20 mph31%29.76 "Hg10 mi
1:51 PM91 °FPassing clouds.18 mph33%29.77 "Hg10 mi
12:51 PM91 °FSunny.14 mph36%29.80 "Hg10 mi
11:51 AM87 °FSunny.15 mph40%29.82 "Hg10 mi
10:51 AM86 °FScattered clouds.13 mph42%29.83 "Hg10 mi
9:51 AM82 °FSunny.12 mph49%29.83 "Hg10 mi
8:51 AM79 °FSunny.10 mph56%29.83 "Hg10 mi
Weather by CustomWeather, © 2015

See weather overviewHow to use our weather pages